TimePDT,TemperatureF,Dew PointF,Humidity,Sea Level PressureIn,VisibilityMPH,Wind Direction,Wind SpeedMPH,Gust SpeedMPH,PrecipitationIn,Events,Conditions,WindDirDegrees,DateUTC
12:56 AM,59.0,37.9,46,29.46,10.0,SSW,20.7,32.2,N/A,,Overcast,210,2014-04-26 07:56:00
1:56 AM,59.0,37.0,44,29.42,10.0,SSW,23.0,36.8,N/A,,Overcast,210,2014-04-26 08:56:00
2:56 AM,57.0,36.0,45,29.43,10.0,SSW,20.7,27.6,N/A,,Overcast,210,2014-04-26 09:56:00
3:56 AM,54.0,37.9,55,29.41,10.0,South,20.7,31.1,N/A,,Overcast,190,2014-04-26 10:56:00
4:56 AM,54.0,36.0,51,29.42,10.0,SSW,18.4,29.9,N/A,,Overcast,200,2014-04-26 11:56:00
5:56 AM,54.0,30.0,40,29.42,10.0,SSW,21.9,28.8,N/A,,Overcast,210,2014-04-26 12:56:00
6:56 AM,51.1,32.0,48,29.45,10.0,SSW,19.6,32.2,N/A,,Mostly Cloudy,210,2014-04-26 13:56:00
7:56 AM,52.0,30.9,45,29.46,10.0,SSW,15.0,26.5,N/A,,Mostly Cloudy,200,2014-04-26 14:56:00
8:56 AM,55.0,30.0,38,29.48,10.0,South,13.8,-,N/A,,Mostly Cloudy,180,2014-04-26 15:56:00
9:56 AM,54.0,32.0,43,29.52,10.0,South,15.0,24.2,N/A,,Mostly Cloudy,170,2014-04-26 16:56:00
10:56 AM,55.0,34.0,45,29.58,10.0,South,15.0,24.2,N/A,,Mostly Cloudy,180,2014-04-26 17:56:00
11:16 AM,57.0,36.0,45,29.62,10.0,South,13.8,-,0.00,Rain,Light Rain,180,2014-04-26 18:16:00
11:56 AM,57.0,35.1,44,29.60,10.0,WSW,13.8,-,0.00,Rain,Light Rain,250,2014-04-26 18:56:00
12:08 PM,57.0,37.0,47,29.63,10.0,SSW,11.5,-,0.00,Rain,Light Rain,210,2014-04-26 19:08:00
12:56 PM,57.9,36.0,44,29.61,10.0,South,13.8,-,0.00,,Mostly Cloudy,190,2014-04-26 19:56:00
1:56 PM,62.1,35.1,37,29.62,10.0,SSW,10.4,-,0.00,,Overcast,210,2014-04-26 20:56:00
2:56 PM,64.9,34.0,32,29.62,10.0,WSW,11.5,18.4,N/A,,Mostly Cloudy,240,2014-04-26 21:56:00
3:56 PM,66.9,32.0,27,29.61,10.0,SSW,10.4,-,N/A,,Scattered Clouds,200,2014-04-26 22:56:00
4:56 PM,69.1,30.0,23,29.61,10.0,WSW,15.0,25.3,N/A,,Scattered Clouds,240,2014-04-26 23:56:00
5:56 PM,70.0,25.0,18,29.62,10.0,WSW,21.9,26.5,N/A,,Scattered Clouds,250,2014-04-27 00:56:00
6:56 PM,68.0,25.0,20,29.63,10.0,SW,13.8,-,N/A,,Partly Cloudy,230,2014-04-27 01:56:00
7:56 PM,66.0,24.1,20,29.65,10.0,WSW,16.1,-,N/A,,Partly Cloudy,240,2014-04-27 02:56:00
8:56 PM,63.0,27.0,26,29.67,10.0,SW,20.7,28.8,N/A,,Partly Cloudy,220,2014-04-27 03:56:00
9:56 PM,61.0,27.0,27,29.70,10.0,WSW,16.1,27.6,N/A,,Partly Cloudy,240,2014-04-27 04:56:00
10:56 PM,59.0,27.0,29,29.73,10.0,SSW,17.3,28.8,N/A,,Partly Cloudy,200,2014-04-27 05:56:00
11:56 PM,57.9,27.0,31,29.74,10.0,South,12.7,-,N/A,,Clear,190,2014-04-27 06:56:00